Погода Узловая

Погода Узловая : погода сейчас, прогноз погоды и архив. Всё, что Вы хотите узнать о погоде Узловая!

Поиск расширенной информации на нашем сайте:

Другие новости

Новости СМИ2

Главная страница сайта

Новости сайта

02.10.2013

Напоминаем, что на нашем новом сайте вы можете получить высокодетализированные прогнозы погоды по пунктам России, СНГ и мира (включающие важные для авиации метеовеличины, такие как направление и скорость ветра, видимость, явления погоды, количество и форма облачности, нижняя и верхняя граница облачности), а также ознакомиться с разнообразными материалами по авиационной метеорологии и подборкой полезных ссылок на эту тему.

Сайт Метеоцентр.Азия посвящён разработке технологий оптимизации авиаметеорологического обслуживания, включая проектирование и перспективное создание нескольких автоматизированных авиаметеорологических систем:
- система выпуска высокодетальных прогностических карт явлений погоды для нижнего воздушного пространства по России и ближнему зарубежью;
- система верификации прогнозов TAF (выпускаемых синоптиками официальных АМСГ РФ и ближнего зарубежья) и AUTOTAF (выпускаемых сайтом Метеоцентр.Азия) - выявление ошибок, онлайн-сопоставление с фактической погодой METAR, автоматическое внесение коррективов в прогнозы при резком отклонении фактической погоды от прогноза, подсчёт оправдываемости прогнозов по элементам и в целом;
- система обработки, анализа и отображения авиаметеорологической информации для применения провайдерами метеорологической информации.

Рекомендуем: кровмаркет отзывы

Погода Узловая - сегодня

Время (UTC), дата Ветер
(°,м/с) 
Видим.   Явления Облачность Т
(°С)
Тd
(°С)
f(%) Тe
(°С)
Pmin
(гПа)
dP
(гПа)
Po
(мм)
O2
(г/м3)
Тmin Tmax R s Состояние
почвы
15 24.06.17 280 (З) 30000 м    8/3 600 м кучево-дожд., верхняя 
[Cb cap|Ci fib]
+18.5 +6 44 +20  1006.7  0.4  735  276      0.1     
18 24.06.17 тихо ()   20000 м    9/0 верхняя 
[Ci]
+14.3 +8.4 68 +14  1007.5  0.5  735  280    +20.7       
21 24.06.17 тихо ()   15000 м    3/0 верхняя 
[Ci sp]
+9.2 +7.5 89 +9  1008.5  0.5  736  285           
00 25.06.17 280 (З) 10 км    5/4 300 м кучево-дожд., средняя 
[Cb cap|Ac trans]
+8.5 +7.3 92 +10  1009  0.4  736  286           
03 25.06.17 тихо ()   18000 м    9/4 300 м кучево-дожд., верхняя 
[Cb cap|Ci fib]
+10.7 +7.5 81 +11  1008.7  -0.1  736  284  +8         
09 25.06.17 280 (З) 28000 м    8/0 кучево-дожд., средняя, верхняя 
[Cb calv|Ac trans|Ci sp]
+21 +97.7 100 +2312  1007.2  0.1  736  14           
12 25.06.17 240 (ЮЗ) 25000 м    8/8 600 м кучево-дожд. 
[Cb cap]
+19.5 +11.5 60 +25  1007.6  0.3  736  275           
15 25.06.17 270 (З) 30000 м    6/4 600 м средняя 
[Cu med, cong|Ac trans]
+21.8 +12.2 54 +26  1007.1  -0.3  736  272           
18 25.06.17 270 (З) 28000 м    10/9 600 м кучево-дожд. 
[Cb cap]
+18 +13.7 76 +26  1008.2  0.8  736  276    +22       
21 25.06.17 280 (З) 15000 м    3/3 600 м верхняя 
[Cs]
+15.7 +73.7 100 +672  1008.3  -0.1  736  177           
00 26.06.17 240 (ЮЗ) 11000 м    9/8 600 м кучево-дожд., средняя 
[Cb cap|Ac trans]
+15.5 +13.8 90 +24  1008.3  -0.1  736  278           
03 26.06.17 270 (З) 17000 м    3/0 верхняя 
[Ci sp]
+15.6 +13 85 +23  1008.6  0.3  736  278  +14.5         
06 26.06.17 240 (ЮЗ) 28000 м    3/0 верхняя 
[Ci sp]
+21.5 +11.9 54 +26  1008.1  736  273  +14.5         
09 26.06.17 230 (ЮЗ) 30000 м    8/6 600 м верхняя 
[Cu med, cong|Ci]
+25.1 +13.3 48 +31  1007.2  -0.5  736  269           
12 26.06.17 220 (ЮЗ) 27000 м    8/5 600 м средняя 
[Cu med, cong|Ac trans]
+27.3 +14.1 44 +35  1005.8  -1.2  735  266           
15 26.06.17 210 (ЮЗ) 10 км  в посл. час снег{гроза}  10/10 300 м кучево-дожд. 
[Cb cap]
+22 +15.5 67 +32  1005.1  -1.1  734  270      0.8     
18 26.06.17 тихо ()   14000 м  {гроза, ливн. осадки}  8/3 300 м кучево-дожд., средняя 
[Cb cap|Ac trans]
+17.2 +15.2 88 +27  1005.1  -0.2  734  275    +27.4     
21 26.06.17 тихо ()   11000 м    9/0 средняя 
[Ac trans]
+17.2 +15.7 91 +28  1004.7  -0.5  734  275           
00 27.06.17 280 (З) 9000 м  дымка  10/10 300 м кучево-дожд. 
[Cb cap]
+17.7 +16.3 92 +31  1006.3  0.6  734  274           
03 27.06.17 тихо ()   16000 м    9/3 300 м кучево-дожд., средняя, верхняя 
[Cb cap|Ac trans|Ci sp]
+15.7 +13.5 87 +22  1006.9  1.4  735  277  +15.7       
06 27.06.17 270 (З) 18000 м    9/9 600 м кучево-дожд. 
[Cb cap]
+18 +14.4 79 +27  1007.4  0.7  736  275  +15.7         
09 27.06.17 300 (СЗ) 26000 м    8/8 300 м кучево-дожд. 
[Cb cap]
+20.1 +11 56 +23  1008.2  736  274           
12 27.06.17 290 (З) 30000 м    8/8 600 м 
[Cu med, cong]
+23.8 +11.6 46 +28  1008.1  0.2  737  271           
15 27.06.17 270 (З) 30000 м    4/3 1000 м верхняя 
[Cu hum|Ci sp]
+22.3 +7.6 39 +22  1008.4  0.1  737  273           
18 27.06.17 270 (З) 29000 м    3/0 верхняя 
[Ci sp]
+16.9 +7.6 54 +18  1010.4  1.5  738  279    +23.8       
Время (UTC), дата Ветер
(°,м/с) 
Видим.   Явления Облачность Т
(°С)
Тd
(°С)
f(%) Тe
(°С)
Pmin
(гПа)
dP
(гПа)
Po
(мм)
O2
(г/м3)
Тmin Tmax R s Состояние
почвы

Для получения пояснительной информации подведите курсор к названию столбца.

ПОГОДА Узловая - архив

Всё, что Вы хотите узнать о погоде Узловая - удобно и подробно!

Выберите нужную дату (начиная с 1 января 2015* года) и нажмите кнопку "Найти".
Будут отображены архивные сводки погоды по пункту Узловая, начиная с указанной даты.


Отображать данные в формате CSV (для использования в таблицах Excel)


Внимание! Наш архив погоды предназначен исключительно для личного некоммерческого использования в познавательных целях. Если Вам необходимы официальные справки о состоянии погоды (для производственных, юридических, коммерческих и т.п. целей), обращайтесь в органы Росгидромета.

*Примечание: данная дата относится к архиву по метеостанциям СССР (Россия, СНГ, Балтия).
Архив по метеостанциям Зарубежной Европы и Азии (кроме Китая) хранится 10 дней, по другим регионам земного шара (Китай, Африка, Америка, Австралия, Океания) - 1 день.

Узловая - район местоположения метеостанции


Название, широта, долгота, высота метеостанции:
Узловая 54°ш. 38.1°д. 231 м над ур. моря [Российская Федерация]

Дополнительная информация

В oтличие oт бoльшинства пoгoдных сайтoв мы публикуем пoдрoбную метеoинфoрмацию в детальнoм прoфессиoнальнoм фoрмате.

Характеристики температуры и влажнoсти вoздуха измеряются на высoте 2 м в тени вдали oт зданий и деревьев.
Скoрoсть ветра измеряется на высoте 10 м (на урoвне рoста челoвека скoрoсть ветра ниже в 1.5-2 раза). Если метеoстанция нахoдится в гoрoде или в лесу, тo скoрoсть ветра занижена на 2-4 м/с пo сравнению с oткрытым местoм. Скoрoсть ветра над акватoриями крупных рек и oзёр, а также на вершинах хoлмoв на 2-5 м/с выше, чем в oбычных услoвиях.
Атмoсфернoе давление в разных тoчках местнoсти мoжет значительнo oтличаться oт давления на метеoстанции, в зависимoсти oт услoвий рельефа (при пoдъёме на 10 м давление пoнижается примернo на 1 мм рт.ст.).